sat.trackr.live / text

‹ back to catalog

STARLINK-34986

NORAD 66446 · 2025-259AA

PAYLOAD ACTIVE UNKNOWN

§ Identity

Operator
Country
US
Launch date
2025-11-11
Launch site
AFETR
Launch vehicle
Mass (kg)
RCS (m²)

Purposes: comms

External: N2YO · Heavens-Above · Gunter

§ Orbital elements

Epoch: 2026-05-25T05:25:51.481056Z

Period
94.27 min
Inclination
43.0003°
Eccentricity
0.0001378
Mean motion
15.27586494 rev/d
Perigee alt
482.1 km
Apogee alt
484.0 km
Semi-major
6,861.2 km
B*
7.2112e-4
RAAN
202.3572°
Arg perigee
260.4599°
Mean anomaly
99.6097°
Rev number
3,119

§ Raw data

STARLINK-349861 66446U 25259AA  26145.22629029  .00019638  00000+0  72112-3 0  99912 66446  43.0003 202.3572 0001378 260.4599  99.6097 15.27586494 31198

JSON: /api/v1/satellites/66446 · /tle

For live sub-satellite position, see the globe view (requires WebGL).

§ Visibility from observer

Set your observer location to see the next 7 days of passes ≥ 10°. The values pass through the URL so the page stays shareable.

No JS? Fill the form by hand. The geolocation button needs JavaScript.